Location: Newark
(42.9277°N, 71.8621°W)
Time: 18:33:23
(UTC+00:00)

Transit 4A - Pass Details

Date: 19 May 2021
Orbit: 872 x 973 km, 66.8° (Epoch: 15 June)

Event Time Altitude Azimuth Distance (km) Brightness Sun altitude
Rises 07:10:10 0° 323° (NW) 3,480 11.1 -18.8°
Reaches altitude 10° 07:12:46 10° 317° (NW) 2,531 10.3 -18.5°
Maximum altitude 07:18:13 42° 248° (WSW) 1,218 8.1 -17.9°
Enters shadow 07:20:53 26° 196° (SSW) 1,632 8.7 -17.6°
